Location: Nordegg
(52.4712°N, 116.0743°W)
Time: 15:17:58
(UTC+00:00)

Envisat - Pass Details

Date: 07 December 2021
Orbit: 764 x 766 km, 98.2° (Epoch: 26 January)

Event Time Altitude Azimuth Distance (km) Brightness Sun altitude
Rises 11:59:19 0° 21° (NNE) 3,247 6.6 -32.4°
Reaches altitude 10° 12:01:55 10° 32° (NNE) 2,316 5.9 -32.0°
Maximum altitude 12:06:23 30° 93° (E) 1,350 4.8 -31.3°
Drops below altitude 10° 12:10:50 10° 155° (SSE) 2,299 5.7 -30.6°
Sets 12:13:23 0° 166° (SSE) 3,220 6.4 -30.2°
